Regional Weather Roundup
Issued by NWS

Home | Current Version | Previous Version | Graphics & Text | Print | Product List | Glossary On
Versions: 1 2 3 4 5 6 7 8 9 10 11 12 13 14 15 16 17 18 19 20 21 22 23 24 25 26 27 28 29 30 31 32 33 34 35 36 37 38 39 40 41 42 43 44 45 46 47 48 49 50
000
ASUS43 KIND 302059
RWRIN

WEATHER ROUNDUP FOR INDIANA
NATIONAL WEATHER SERVICE INDIANAPOLIS IN
500 PM EDT SUN AUG 30 2015

NOTE: "FAIR" INDICATES FEW OR NO CLOUDS BELOW 12,000 FEET WITH NO
SIGNIFICANT WEATHER AND/OR OBSTRUCTIONS TO VISIBILITY.

* - STATION DOES NOT REPORT WEATHER SUCH AS PRECIPITATION OR FOG.

+ - STATION NOT QUALITY CONTROLLED BY THE NATIONAL WEATHER SERVICE.
    USE DATA WITH CAUTION...ESPECIALLY DEWPOINT AND RELATIVE
    HUMIDITY OBSERVATIONS.

INZ001>003-010>013-019-020-302200-
NORTHWEST INDIANA

CITY           SKY/WX    TMP DP  RH WIND       PRES   REMARKS
GARY /AIRPORT/ MOSUNNY   73  64  73 N7        30.05F

$$

LMZ046-743>745-302200-
SOUTHERN LAKE MICHIGAN

STATION/POSITION TIME  TEMP    WIND        PRES    WAVE
                       AIR SEA DIR/SP/G            HT
                 (UTC) (F)     (DEG/KT/KT) (MB)    (FT)
MICHIGAN CITY    2000   71     330/  5/  6   N/A
5NW MICH CITY    2000   69 71  360/  6/  8   N/A     1

$$

INZ004-005-014>016-021>024-302200-
NORTH CENTRAL INDIANA

CITY           SKY/WX    TMP DP  RH WIND       PRES   REMARKS
GOSHEN         SUNNY     79  70  74 W9        30.03F
SOUTH BEND     NOT AVBL

$$

INZ006>009-017-018-025>027-302200-
NORTHEAST INDIANA

CITY           SKY/WX    TMP DP  RH WIND       PRES   REMARKS
ANGOLA *+      PTSUNNY   84  70  61 W7        30.03F
FORT WAYNE     NOT AVBL

$$

INZ028-029-035-036-043>045-051>053-302200-
WEST CENTRAL INDIANA

CITY           SKY/WX    TMP DP  RH WIND       PRES   REMARKS
GREENCASTLE +  PTSUNNY   82  59  44 S6        30.04F
LAFAYETTE      NOT AVBL
TERRE HAUTE    MOSUNNY   85  65  51 S8        30.02F

$$

INZ030>032-037>040-046>048-054>057-064-065-302200-
CENTRAL INDIANA

CITY           SKY/WX    TMP DP  RH WIND       PRES   REMARKS
GREENWOOD *+   MOSUNNY   84  61  45 SW7       30.04F
INDIANAPOLIS   NOT AVBL
-EAGLE CREEK   MOSUNNY   84  65  52 VRB7      30.03F
SHELBYVILLE    MOSUNNY   85  64  49 SW9       30.03F

$$

INZ033-034-041-042-049-050-058-059-302200-
EAST CENTRAL INDIANA

CITY           SKY/WX    TMP DP  RH WIND       PRES   REMARKS
MUNCIE         PTSUNNY   83  63  50 SW10      30.03F

$$

INZ060-061-067>069-081>083-085>088-302200-
SOUTHWEST INDIANA

CITY           SKY/WX    TMP DP  RH WIND       PRES   REMARKS
EVANSVILLE     NOT AVBL

$$

INZ062-063-066-070>080-084-089>092-302200-
SOUTH CENTRAL AND SOUTHEAST INDIANA

CITY           SKY/WX    TMP DP  RH WIND       PRES   REMARKS
BLOOMINGTON    PTSUNNY   84  66  54 SW6       30.05F
SEYMOUR +      MOSUNNY   86  66  51 S5        30.04F

$$



USA.gov is the U.S. government's official web portal to all federal, state and local government web resources and services.